Location: Unspecified
(48.1967°N, 0.0000°E)
Time: 10:36:01
(UTC+00:00)

Okean 1-7 Rocket - Visible Passes

Search period start: 04 April 2026 00:00
Search period end: 14 April 2026 00:00
Orbit: 610 x 643 km, 82.5° (Epoch: 29 March)

Date Brightness Start Highest point End Pass type
(mag) Time Alt. Az. Time Alt. Az. Time Alt. Az.
4 Apr 5.6 01:57:33 10° NNE 02:01:04 23° ENE 02:02:10 21° E visible
4 Apr 4.0 03:35:10 10° NNW 03:39:14 38° W 03:39:27 38° W visible
5 Apr 4.6 02:16:46 10° N 02:20:55 41° ENE 02:21:17 40° E visible
5 Apr 4.9 03:55:21 10° NW 03:58:33 21° W 03:58:33 21° W visible
6 Apr 3.6 02:36:15 10° N 02:40:26 74° NE 02:40:26 74° NE visible
6 Apr 5.5 04:16:25 10° WNW 04:17:43 12° WNW 04:17:43 12° WNW visible
7 Apr 6.0 01:18:59 10° NNE 01:21:50 17° ENE 01:22:22 16° ENE visible
7 Apr 3.8 02:55:58 10° NNW 02:59:38 51° WNW 02:59:38 51° WNW visible
8 Apr 5.3 01:37:55 10° N 01:41:36 29° ENE 01:41:36 29° ENE visible
8 Apr 4.7 03:15:56 10° NNW 03:18:53 28° WNW 03:18:53 28° WNW visible
9 Apr 4.4 01:57:15 10° N 02:00:52 47° NE 02:00:52 47° NE visible
9 Apr 5.4 03:36:20 10° NW 03:38:09 16° WNW 03:38:09 16° WNW visible
10 Apr 6.3 00:40:47 10° NE 00:42:33 12° ENE 00:42:53 12° ENE visible
10 Apr 4.1 02:16:50 10° N 02:20:11 52° NNW 02:20:11 52° NNW visible
11 Apr 5.7 00:59:12 10° NNE 01:02:13 21° ENE 01:02:13 21° ENE visible
11 Apr 4.6 02:36:39 10° NNW 02:39:30 34° NW 02:39:30 34° NW visible
12 Apr 5.1 01:18:20 10° N 01:21:34 33° NE 01:21:34 33° NE visible
12 Apr 5.2 02:56:44 10° NW 02:58:51 20° WNW 02:58:51 20° WNW visible
13 Apr 4.5 01:37:47 10° N 01:40:55 44° NNE 01:40:55 44° NNE visible
13 Apr 5.8 03:17:30 10° NW 03:18:13 12° WNW 03:18:13 12° WNW visible
